FW5436 Weather Reports


Display with metric or nautical units.
time (UTC)temp
F
wind
direction
speed
MPH
gust
MPH
rain 1hr
in
rain 24hr
in
rain mn
in
humidity
%
barometer
mb
20260502130350 53 315 5.0 11.0 0.00 0.00 0.00 69 1020.6
20260502123758 51 90 4.0 14.0 0.00 0.00 0.00 72 1020.2
20260502123249 51 248 3.0 14.0 0.00 0.00 0.00 74 1020.3
20260502122738 50 135 2.0 11.0 0.00 0.00 0.00 75 1020.1
20260502122228 50 45 5.0 11.0 0.00 0.00 0.00 75 1020.3
20260502121207 50 315 5.0 11.0 0.00 0.00 0.00 76 1020.1
20260502120657 50 248 4.0 11.0 0.00 0.00 0.00 76 1020.0
20260502120147 49 23 4.0 11.0 0.00 0.00 0.00 76 1019.9
20260502115637 49 0 3.0 9.0 0.00 0.00 0.00 76 1019.6
20260502115127 49 270 4.0 9.0 0.00 0.00 0.00 77 1019.5
20260502114106 49 68 2.0 9.0 0.00 0.00 0.00 77 1019.2
20260502113557 48 315 3.0 9.0 0.00 0.00 0.00 78 1019.1
20260502113046 48 338 4.0 9.0 0.00 0.00 0.00 79 1019.2
20260502112537 47 23 3.0 8.0 0.00 0.00 0.00 80 1019.0
20260502112026 47 68 2.0 7.0 0.00 0.00 0.00 81 1018.9
20260502111515 46 338 2.0 11.0 0.00 0.00 0.00 82 1018.8
20260502110455 46 68 3.0 11.0 0.00 0.00 0.00 83 1018.8
20260502105946 46 113 2.0 8.0 0.00 0.00 0.00 84 1018.6
20260502104925 46 90 2.0 9.0 0.00 0.00 0.00 85 1018.4
20260502104416 46 113 2.0 6.0 0.00 0.00 0.00 85 1018.2
20260502103904 46 248 2.0 7.0 0.00 0.00 0.00 85 1018.5
20260502103354 46 45 2.0 7.0 0.00 0.00 0.00 85 1018.1
20260502102844 46 68 1.0 7.0 0.00 0.00 0.00 85 1018.0
20260502102335 46 180 1.0 7.0 0.00 0.00 0.00 85 1017.9
20260502101824 46 90 2.0 7.0 0.00 0.00 0.00 85 1017.8
20260502100804 46 23 2.0 7.0 0.00 0.00 0.00 84 1017.9
20260502100255 47 135 2.0 7.0 0.00 0.00 0.00 84 1017.8
20260502090602 47 45 2.0 6.0 0.00 0.00 0.00 84 1016.9
20260502071223 51 135 2.0 4.0 0.00 0.00 0.00 77 1015.8
20260502070222 51 68 1.0 6.0 0.00 0.00 0.00 77 1015.5
20260502065711 51 270 2.0 6.0 0.00 0.00 0.00 77 1015.4
20260502065201 51 68 2.0 6.0 0.00 0.00 0.00 77 1015.5
20260502064650 51 90 2.0 6.0 0.00 0.00 0.00 76 1015.5
20260502064141 51 68 2.0 4.0 0.00 0.00 0.00 76 1015.4
20260502063630 52 23 2.0 8.0 0.00 0.00 0.00 77 1015.4
20260502063120 52 45 2.0 8.0 0.00 0.00 0.00 76 1015.2
20260502062610 52 23 2.0 6.0 0.00 0.00 0.00 76 1015.3
20260502062100 52 23 2.0 6.0 0.00 0.00 0.00 76 1015.1
20260502061550 52 338 3.0 9.0 0.00 0.00 0.00 76 1015.3
20260502061040 53 0 2.0 9.0 0.00 0.00 0.00 76 1015.4
20260502060538 53 45 2.0 7.0 0.00 0.00 0.00 75 1015.3
20260502060019 53 23 2.0 7.0 0.00 0.00 0.00 75 1015.4
20260502055509 53 68 3.0 7.0 0.00 0.00 0.00 75 1015.4
20260502055000 53 293 2.0 4.0 0.00 0.00 0.00 74 1015.5
20260502054448 54 45 1.0 6.0 0.00 0.00 0.00 74 1015.2
20260502053938 54 45 2.0 6.0 0.00 0.00 0.00 73 1015.1
20260502053429 54 68 2.0 0.0 0.00 0.00 0.00 73 1015.2
20260502052848 55 113 2.0 6.0 0.00 0.00 0.00 72 1015.0
20260502052337 55 0 2.0 4.0 0.00 0.00 0.00 72 1015.0
20260502051828 55 90 2.0 6.0 0.00 0.00 0.00 72 1014.9
20260502051317 55 0 2.0 6.0 0.00 0.00 0.00 72 1014.8
20260502050807 55 203 2.0 6.0 0.00 0.00 0.00 73 1014.6
20260502050302 55 68 2.0 8.0 0.00 0.00 0.00 73 1014.8
20260502045746 56 45 2.0 8.0 0.00 0.00 0.00 74 1014.7
20260502045236 56 158 2.0 6.0 0.00 0.00 0.00 74 1014.6
20260502044726 56 135 2.0 4.0 0.00 0.00 0.00 74 1014.9
20260502043707 56 180 2.0 4.0 0.00 0.00 0.00 73 1014.3
20260502042647 57 23 2.0 6.0 0.00 0.00 0.00 74 1014.4
20260502042136 57 23 2.0 6.0 0.00 0.00 0.00 75 1014.0
20260502041627 57 113 2.0 6.0 0.00 0.00 0.00 75 1014.3
20260502041116 57 90 2.0 6.0 0.00 0.00 0.00 77 1014.3
20260502040055 57 90 2.0 6.0 0.00 0.00 0.00 78 1014.0
20260502035036 58 45 0.0 6.0 0.00 0.00 0.00 79 1013.3
20260502034016 58 45 0.0 4.0 0.00 0.00 0.00 79 1012.8
20260502033505 58 68 1.0 7.0 0.00 0.00 0.00 79 1013.7
20260502032959 58 0 2.0 7.0 0.00 0.00 0.00 79 1013.7
20260502032444 58 248 1.0 4.0 0.00 0.00 0.00 80 1013.2
20260502031423 58 158 2.0 4.0 0.00 0.00 0.00 80 1013.3
20260502030914 58 315 3.0 4.0 0.00 0.00 0.00 80 1013.6
20260502030408 58 90 2.0 4.0 0.00 0.00 0.00 80 1013.4
20260502025854 58 225 2.0 7.0 0.00 0.00 0.00 80 1013.2
20260502025347 58 45 2.0 7.0 0.00 0.00 0.00 81 1013.1
20260502024833 58 338 2.0 6.0 0.00 0.00 0.00 81 1013.1
20260502023813 58 203 2.0 6.0 0.00 0.00 0.00 81 1012.4
20260502023302 59 68 2.0 4.0 0.00 0.00 0.00 81 1012.2
20260502022753 59 90 2.0 4.0 0.00 0.00 0.00 80 1012.1
20260502022242 59 158 2.0 4.0 0.00 0.00 0.00 80 1012.2
20260502021732 59 23 2.0 4.0 0.00 0.00 0.00 80 1012.2
20260502021223 59 45 2.0 4.0 0.00 0.00 0.00 79 1011.9
20260502020712 59 203 2.0 4.0 0.00 0.00 0.00 79 1012.0
20260502020202 59 248 1.0 4.0 0.00 0.00 0.00 79 1012.0
20260502015652 59 158 2.0 4.0 0.00 0.00 0.00 78 1011.9
20260502015141 59 158 2.0 7.0 0.00 0.00 0.00 78 1012.1
20260502014121 60 180 2.0 4.0 0.00 0.00 0.00 77 1012.2
20260502013612 60 135 2.0 4.0 0.00 0.00 0.00 76 1012.0
20260502013101 60 113 2.0 8.0 0.00 0.00 0.00 76 1011.7
20260502011530 60 0 2.0 6.0 0.00 0.00 0.00 75 1011.8
20260502011021 60 113 2.0 6.0 0.00 0.00 0.00 75 1011.7
20260502010510 60 68 2.0 6.0 0.00 0.00 0.00 74 1011.5
20260502010000 60 90 2.0 7.0 0.00 0.00 0.00 74 1011.4
20260502005451 61 0 2.0 7.0 0.00 0.00 0.00 73 1011.4
20260502004940 61 135 2.0 8.0 0.00 0.00 0.00 73 1011.3
20260502004430 61 293 3.0 8.0 0.00 0.00 0.00 74 1011.1
20260502003920 61 23 2.0 6.0 0.00 0.00 0.00 74 1010.8
20260502003409 62 113 2.0 7.0 0.00 0.00 0.00 75 1010.7
20260502002859 62 113 2.0 7.0 0.00 0.00 0.00 74 1010.4
20260502002348 62 270 2.0 6.0 0.00 0.00 0.00 75 1010.6
20260502001329 63 90 2.0 6.0 0.00 0.00 0.00 77 1010.5
20260502000819 63 203 3.0 7.0 0.00 0.00 0.00 77 1010.2
20260502000310 63 90 2.0 7.0 0.00 0.00 0.00 78 1010.3
20260501235758 64 90 2.0 7.0 0.00 0.00 0.00 79 1010.4
20260501234738 64 90 3.0 7.0 0.00 0.00 0.00 80 1009.9
20260501234228 64 45 4.0 7.0 0.00 0.00 0.00 83 1009.8
20260501233718 64 270 2.0 4.0 0.00 0.00 0.00 84 1009.6
20260501232148 63 158 1.0 2.0 0.00 0.00 0.00 86 1009.0
20260501225844 62 68 1.0 4.0 0.00 0.00 0.00 88 1008.9
20260501225334 63 248 1.0 4.0 0.00 0.00 0.00 88 1009.0
20260501224824 63 45 0.0 2.0 0.00 0.00 0.00 87 1008.8
20260501224315 63 68 1.0 2.0 0.00 0.00 0.00 86 1008.6
20260501223805 64 45 1.0 4.0 0.00 0.00 0.00 86 1008.4
20260501223254 64 68 1.0 4.0 0.00 0.00 0.00 86 1008.3
20260501222743 64 45 1.0 2.0 0.00 0.00 0.00 85 1008.4
20260501222234 64 45 1.0 2.0 0.00 0.00 0.00 85 1008.0
20260501221724 64 45 1.0 2.0 0.00 0.00 0.00 85 1008.1
20260501221215 64 68 1.0 2.0 0.00 0.00 0.00 85 1008.1
20260501220703 64 68 1.0 2.0 0.00 0.00 0.00 84 1008.2
20260501220153 64 68 1.0 2.0 0.00 0.00 0.00 84 1008.2
20260501215644 64 68 0.0 2.0 0.00 0.00 0.00 83 1008.2
20260501214623 65 68 1.0 4.0 0.00 0.00 0.00 82 1007.7
20260501214114 65 68 0.0 4.0 0.00 0.00 0.00 82 1007.9
20260501213603 65 68 1.0 4.0 0.00 0.00 0.00 81 1007.8
20260501213053 65 113 1.0 4.0 0.00 0.00 0.00 81 1007.8
20260501212543 66 23 1.0 4.0 0.00 0.00 0.00 80 1007.7
20260501212032 66 45 1.0 2.0 0.00 0.00 0.00 80 1007.8
20260501211522 66 45 1.0 2.0 0.00 0.00 0.00 80 1007.9
20260501211012 66 68 1.0 4.0 0.00 0.00 0.00 79 1007.8
20260501210502 66 45 2.0 4.0 0.00 0.00 0.00 79 1007.7
20260501205442 67 90 2.0 4.0 0.00 0.00 0.00 77 1007.7
20260501204421 67 68 2.0 4.0 0.00 0.00 0.00 76 1007.6
20260501203912 67 68 2.0 4.0 0.00 0.00 0.00 76 1007.7
20260501203401 67 90 1.0 2.0 0.00 0.00 0.00 76 1007.6
20260501202345 68 68 2.0 4.0 0.00 0.00 0.00 75 1007.2
20260501201830 68 90 2.0 4.0 0.00 0.00 0.00 74 1007.2
20260501200811 69 45 2.0 4.0 0.00 0.00 0.00 72 1007.2
20260501200259 70 90 1.0 4.0 0.00 0.00 0.00 71 1007.3
20260501195751 70 90 0.0 4.0 0.00 0.00 0.00 70 1007.4
20260501194730 71 68 1.0 4.0 0.00 0.00 0.00 68 1007.3
20260501194220 71 45 1.0 7.0 0.00 0.00 0.00 68 1007.4
20260501193709 71 45 2.0 7.0 0.00 0.00 0.00 68 1007.2
20260501193159 72 45 2.0 4.0 0.00 0.00 0.00 66 1007.3
20260501192649 72 23 2.0 6.0 0.00 0.00 0.00 66 1007.2
20260501192139 71 68 2.0 6.0 0.00 0.00 0.00 67 1007.3
20260501191628 71 90 2.0 6.0 0.00 0.00 0.00 68 1007.2
20260501191118 70 135 1.0 4.0 0.00 0.00 0.00 69 1007.4
20260501190609 70 45 2.0 7.0 0.00 0.00 0.00 69 1007.2
20260501190058 71 90 2.0 7.0 0.00 0.00 0.00 68 1007.2
20260501185549 72 68 2.0 7.0 0.00 0.00 0.00 65 1007.1
20260501185038 73 90 3.0 7.0 0.00 0.00 0.00 65 1007.1
20260501184528 73 113 1.0 7.0 0.00 0.00 0.00 65 1006.9
20260501184019 73 68 2.0 6.0 0.00 0.00 0.00 63 1007.1
20260501183508 74 45 3.0 6.0 0.00 0.00 0.00 63 1007.0
20260501182958 74 293 1.0 4.0 0.00 0.00 0.00 63 1007.1
20260501181938 72 270 1.0 4.0 0.00 0.00 0.00 68 1007.4
20260501181427 70 0 1.0 7.0 0.00 0.00 0.00 72 1007.4
20260501180917 69 90 2.0 7.0 0.00 0.00 0.00 73 1007.4
20260501180406 70 225 1.0 4.0 0.00 0.00 0.00 72 1007.4
20260501175856 70 113 2.0 4.0 0.00 0.00 0.00 71 1007.4
20260501175351 71 45 2.0 6.0 0.00 0.00 0.00 71 1007.5
20260501174840 72 68 1.0 6.0 0.00 0.00 0.00 67 1007.8
20260501174331 72 135 2.0 6.0 0.00 0.00 0.00 64 1007.8
20260501173820 73 45 1.0 4.0 0.00 0.00 0.00 62 1007.5
20260501173310 72 113 2.0 4.0 0.00 0.00 0.00 63 1007.8
20260501172800 73 90 2.0 4.0 0.00 0.00 0.00 62 1007.6
20260501172249 73 68 2.0 4.0 0.00 0.00 0.00 62 1007.7
20260501171739 73 68 2.0 4.0 0.00 0.00 0.00 63 1007.8
20260501171230 73 68 3.0 4.0 0.00 0.00 0.00 62 1007.8
20260501170720 73 135 2.0 7.0 0.00 0.00 0.00 63 1008.0
20260501170209 72 90 2.0 7.0 0.00 0.00 0.00 65 1007.8
20260501165659 71 113 2.0 6.0 0.00 0.00 0.00 68 1008.1
20260501165149 70 45 2.0 6.0 0.00 0.00 0.00 70 1008.1
20260501164639 70 225 1.0 4.0 0.00 0.00 0.00 71 1008.2
20260501164133 71 45 1.0 4.0 0.00 0.00 0.00 70 1008.4
20260501163619 70 0 1.0 6.0 0.00 0.00 0.00 70 1008.3
20260501163108 71 293 2.0 6.0 0.00 0.00 0.00 71 1008.5
20260501162600 70 135 2.0 6.0 0.00 0.00 0.00 72 1008.7
20260501162049 70 158 1.0 8.0 0.00 0.00 0.00 72 1008.7
20260501161538 70 135 2.0 8.0 0.00 0.00 0.00 71 1008.9
20260501161028 70 68 3.0 8.0 0.00 0.00 0.00 71 1009.1
20260501154947 71 158 3.0 7.0 0.00 0.00 0.00 72 1009.4
20260501153926 71 23 2.0 6.0 0.00 0.00 0.00 72 1009.4
20260501153417 70 23 1.0 4.0 0.00 0.00 0.00 72 1009.6
20260501152356 69 90 0.0 4.0 0.00 0.00 0.00 76 1009.5
20260501151847 69 113 1.0 7.0 0.00 0.00 0.00 77 1009.6
20260501151336 69 270 2.0 7.0 0.00 0.00 0.00 77 1009.6
20260501150826 69 270 1.0 4.0 0.00 0.00 0.00 77 1009.6
20260501150315 69 248 2.0 4.0 0.00 0.00 0.00 78 1009.7
20260501145806 69 23 2.0 7.0 0.00 0.00 0.00 78 1010.0
20260501145256 68 68 2.0 7.0 0.00 0.00 0.00 79 1009.8
20260501144235 67 23 2.0 6.0 0.00 0.00 0.00 81 1010.0
20260501143725 66 180 0.0 6.0 0.00 0.00 0.00 82 1009.8
20260501143215 66 45 2.0 6.0 0.00 0.00 0.00 82 1010.1
20260501142155 66 293 2.0 4.0 0.00 0.00 0.00 82 1010.1
20260501141645 66 113 2.0 4.0 0.00 0.00 0.00 82 1010.2